Weather History for KAVK - April, 2014

Change the Weather History Date:

Friday, April 25, 2014

  Actual Average Record
Temperature  
Mean Temperature 60 °F -  
Max Temperature 82 °F 72 °F 97 °F (1989)
Min Temperature 39 °F 49 °F 33 °F (2013)
Degree Days  
Heating Degree Days 4    
Growing Degree Days 10 (Base 50)    
Moisture  
Dew Point 38 °F    
Average Humidity 44    
Maximum Humidity 81    
Minimum Humidity 21    
Precipitation  
Precipitation 0.00 in - - ()
Sea Level Pressure  
Sea Level Pressure 29.87 in    
Wind  
Wind Speed 13 mph (South)    
Max Wind Speed 29 mph    
Max Gust Speed 43 mph    
Visibility 10 miles    
Events      
Averages and records for this station are not official NWS values.
T = Trace of Precipitation, MM = Missing Value Source: NWS Daily Summary

Daily Weather History Graph

Daily Weather History Graph

Search for Another Location

Airport or City:

Trip Planner

Search our weather history database for the weather conditions in past years. The results will help you decide how hot, cold, wet, or windy it might be!

Date:

Astronomy

Apr. 25, 2014 Rise Set
Actual Time 6:47 AM CDT 8:18 PM CDT
Civil Twilight 6:20 AM CDT 8:45 PM CDT
Nautical Twilight 5:47 AM CDT 9:18 PM CDT
Astronomical Twilight 5:13 AM CDT 9:53 PM CDT
Moon 4:30 AM CDT (4/25) 4:47 PM CDT (4/25)
Length of Visible Light 14h 25m
Length of Day
13h 30m
Waning Crescent, 15% of the Moon is Illuminated
Apr 25
Waning Crescent
Apr 29
New
May 6
First Quarter
May 14
Full
May 21
Last Quarter

Hourly Weather History & Observations

Time (CDT) Temp. Windchill Dew Point Humidity Pressure Visibility Wind Dir Wind Speed Gust Speed Precip Events Conditions
12:15 AM 48.2 °F - 32.0 °F 54% 29.94 in 10.0 mi South 9.2 mph - N/A   Clear
12:35 AM 46.4 °F 41.5 °F 32.0 °F 57% 29.94 in 10.0 mi South 10.4 mph - N/A   Clear
12:55 AM 44.6 °F 39.2 °F 32.0 °F 61% 29.94 in 10.0 mi South 10.4 mph - N/A   Clear
1:15 AM 44.6 °F 39.2 °F 32.0 °F 61% 29.94 in 10.0 mi South 10.4 mph - N/A   Clear
1:35 AM 44.6 °F 39.2 °F 32.0 °F 61% 29.93 in 10.0 mi South 10.4 mph - N/A   Clear
1:55 AM 44.6 °F 38.8 °F 33.8 °F 66% 29.93 in 10.0 mi South 11.5 mph - N/A   Partly Cloudy
2:15 AM 42.8 °F 37.0 °F 33.8 °F 70% 29.93 in 10.0 mi South 10.4 mph - N/A   Clear
2:35 AM 44.6 °F 40.7 °F 33.8 °F 66% 29.93 in 10.0 mi South 6.9 mph - N/A   Clear
2:55 AM 44.6 °F 40.2 °F 33.8 °F 66% 29.94 in 10.0 mi SSW 8.1 mph - N/A   Clear
3:15 AM 41.0 °F 36.4 °F 33.8 °F 76% 29.94 in 10.0 mi SSW 6.9 mph - N/A   Clear
3:35 AM 41.0 °F 36.4 °F 33.8 °F 76% 29.93 in 10.0 mi South 6.9 mph - N/A   Clear
3:55 AM 44.6 °F 39.7 °F 33.8 °F 66% 29.93 in 10.0 mi South 9.2 mph - N/A   Clear
4:15 AM 44.6 °F 40.7 °F 33.8 °F 66% 29.94 in 10.0 mi SSW 6.9 mph - N/A   Clear
4:30 AM 44.6 °F 40.7 °F 33.8 °F 66% 29.94 in 10.0 mi SSW 6.9 mph - N/A   Clear
4:55 AM 44.6 °F 40.2 °F 35.6 °F 71% 29.94 in 10.0 mi South 8.1 mph - N/A   Clear
5:15 AM 44.6 °F 39.7 °F 35.6 °F 71% 29.94 in 10.0 mi SSW 9.2 mph - N/A   Clear
5:35 AM 41.0 °F 35.8 °F 33.8 °F 76% 29.94 in 10.0 mi SSW 8.1 mph - N/A   Clear
5:55 AM 39.2 °F 32.5 °F 33.8 °F 81% 29.94 in 10.0 mi SSW 10.4 mph - N/A   Clear
6:15 AM 41.0 °F 35.2 °F 35.6 °F 81% 29.95 in 10.0 mi SSW 9.2 mph - N/A   Clear
6:35 AM 41.0 °F 35.8 °F 35.6 °F 81% 29.94 in 10.0 mi SSW 8.1 mph - N/A   Clear
6:55 AM 39.2 °F 33.6 °F 33.8 °F 81% 29.95 in 10.0 mi SSW 8.1 mph - N/A   Clear
7:15 AM 41.0 °F 34.7 °F 35.6 °F 81% 29.95 in 10.0 mi SSW 10.4 mph - N/A   Clear
7:35 AM 44.6 °F 39.7 °F 37.4 °F 76% 29.96 in 10.0 mi South 9.2 mph - N/A   Clear
7:55 AM 46.4 °F 42.4 °F 37.4 °F 71% 29.96 in 10.0 mi South 8.1 mph - N/A   Clear
8:15 AM 50.0 °F - 39.2 °F 66% 29.97 in 10.0 mi SSW 8.1 mph - N/A   Clear
8:35 AM 53.6 °F - 41.0 °F 62% 29.98 in 10.0 mi SSW 5.8 mph - N/A   Clear
8:55 AM 59.0 °F - 39.2 °F 48% 29.98 in 10.0 mi SSW 11.5 mph - N/A   Clear
9:15 AM 60.8 °F - 37.4 °F 42% 29.98 in 10.0 mi SSW 13.8 mph 20.7 mph N/A   Clear
9:35 AM 62.6 °F - 37.4 °F 39% 29.97 in 10.0 mi SSW 20.7 mph 24.2 mph N/A   Clear
9:55 AM 64.4 °F - 37.4 °F 37% 29.97 in 10.0 mi SSW 19.6 mph 27.6 mph N/A   Clear
10:15 AM 68.0 °F - 37.4 °F 33% 29.96 in 10.0 mi SSW 25.3 mph 31.1 mph N/A   Clear
10:30 AM 68.0 °F - 35.6 °F 30% 29.96 in 10.0 mi SSW 25.3 mph 33.4 mph N/A   Clear
10:55 AM 68.0 °F - 35.6 °F 30% 29.96 in 10.0 mi SSW 21.9 mph 34.5 mph N/A   Clear
11:15 AM 71.6 °F - 37.4 °F 29% 29.95 in 10.0 mi South 28.8 mph 34.5 mph N/A   Clear
11:35 AM 71.6 °F - 37.4 °F 29% 29.94 in 10.0 mi South 24.2 mph 32.2 mph N/A   Clear
11:55 AM 73.4 °F - 37.4 °F 27% 29.93 in 10.0 mi SSW 26.5 mph 34.5 mph N/A   Clear
12:15 PM 75.2 °F - 37.4 °F 25% 29.92 in 10.0 mi SSW 26.5 mph 34.5 mph N/A   Clear
12:35 PM 75.2 °F - 37.4 °F 25% 29.91 in 10.0 mi SSW 24.2 mph 35.7 mph N/A   Clear
12:55 PM 77.0 °F - 37.4 °F 24% 29.90 in 10.0 mi SSW 27.6 mph 36.8 mph N/A   Clear
1:15 PM 77.0 °F - 39.2 °F 26% 29.88 in 10.0 mi SSW 23.0 mph 36.8 mph N/A   Clear
1:35 PM 78.8 °F - 39.2 °F 24% 29.87 in 10.0 mi South 20.7 mph 36.8 mph N/A   Clear
1:55 PM 78.8 °F - 39.2 °F 24% 29.86 in 10.0 mi SSW 21.9 mph 31.1 mph N/A   Clear
2:15 PM 80.6 °F - 39.2 °F 23% 29.86 in 10.0 mi SSW 23.0 mph 34.5 mph N/A   Clear
2:35 PM 80.6 °F - 39.2 °F 23% 29.86 in 10.0 mi SW 24.2 mph 33.4 mph N/A   Clear
2:55 PM 80.6 °F - 39.2 °F 23% 29.85 in 10.0 mi South 21.9 mph 31.1 mph N/A   Clear
3:15 PM 82.4 °F - 39.2 °F 21% 29.84 in 10.0 mi SSW 24.2 mph 32.2 mph N/A   Clear
3:35 PM 82.4 °F - 39.2 °F 21% 29.83 in 10.0 mi SSW 23.0 mph 42.6 mph N/A   Clear
3:55 PM 80.6 °F - 41.0 °F 24% 29.82 in 10.0 mi SSW 20.7 mph 31.1 mph N/A   Clear
4:15 PM 82.4 °F - 41.0 °F 23% 29.81 in 10.0 mi SSW 24.2 mph 34.5 mph N/A   Clear
4:35 PM 82.4 °F - 41.0 °F 23% 29.80 in 10.0 mi SSW 24.2 mph 34.5 mph N/A   Clear
4:55 PM 80.6 °F - 41.0 °F 24% 29.79 in 10.0 mi SSW 21.9 mph 28.8 mph N/A   Clear
5:15 PM 80.6 °F - 42.8 °F 26% 29.79 in 10.0 mi SSW 16.1 mph 27.6 mph N/A   Clear
5:35 PM 80.6 °F - 42.8 °F 26% 29.78 in 10.0 mi SSW 18.4 mph 25.3 mph N/A   Clear
5:55 PM 80.6 °F - 41.0 °F 24% 29.77 in 10.0 mi South 15.0 mph 25.3 mph N/A   Clear
6:15 PM 80.6 °F - 42.8 °F 26% 29.77 in 10.0 mi SSW 20.7 mph 27.6 mph N/A   Clear
6:35 PM 80.6 °F - 41.0 °F 24% 29.76 in 10.0 mi South 21.9 mph 28.8 mph N/A   Clear
6:55 PM 78.8 °F - 41.0 °F 26% 29.76 in 10.0 mi South 18.4 mph 27.6 mph N/A   Clear
7:15 PM 78.8 °F - 41.0 °F 26% 29.75 in 10.0 mi South 17.3 mph 23.0 mph N/A   Clear
7:35 PM 77.0 °F - 41.0 °F 28% 29.75 in 10.0 mi South 19.6 mph 26.5 mph N/A   Clear
7:55 PM 77.0 °F - 41.0 °F 28% 29.75 in 10.0 mi South 16.1 mph 21.9 mph N/A   Clear
8:15 PM 75.2 °F - 41.0 °F 29% 29.75 in 10.0 mi South 13.8 mph - N/A   Clear
8:35 PM 73.4 °F - 41.0 °F 31% 29.75 in 10.0 mi SSE 15.0 mph 19.6 mph N/A   Clear
8:55 PM 71.6 °F - 41.0 °F 33% 29.76 in 10.0 mi SSE 12.7 mph - N/A   Clear
9:15 PM 69.8 °F - 41.0 °F 35% 29.76 in 10.0 mi SSE 13.8 mph 19.6 mph N/A   Clear
9:35 PM 69.8 °F - 41.0 °F 35% 29.77 in 10.0 mi SSE 13.8 mph - N/A   Clear
9:55 PM 68.0 °F - 41.0 °F 37% 29.77 in 10.0 mi SSE 12.7 mph - N/A   Partly Cloudy
10:15 PM 68.0 °F - 41.0 °F 37% 29.77 in 10.0 mi SSE 12.7 mph 19.6 mph N/A   Scattered Clouds
10:35 PM 66.2 °F - 42.8 °F 43% 29.77 in 10.0 mi SSE 12.7 mph - N/A   Scattered Clouds
10:55 PM 66.2 °F - 42.8 °F 43% 29.77 in 10.0 mi SSE 13.8 mph - N/A   Scattered Clouds
11:15 PM 64.4 °F - 42.8 °F 45% 29.77 in 10.0 mi SSE 11.5 mph - N/A   Scattered Clouds
11:35 PM 64.4 °F - 42.8 °F 45% 29.77 in 10.0 mi SSE 10.4 mph - N/A   Scattered Clouds
11:55 PM 62.6 °F - 41.0 °F 45% 29.77 in 10.0 mi ESE 6.9 mph - N/A   Scattered Clouds